This is the latest recevied weather packets stored in our database for station/object WA1DLZ. If no packets are shown the sender has not sent any weather packets the latest 10 day(s).
| Time | Temp. | Humidity | Pressure | Rain* | Wind** | Luminosity | Snow |
|---|---|---|---|---|---|---|---|
| 1777638004 | 6.11° C | 86% | 1006.7 hPa | 0 mm | - | - | - |
| 1777636505 | 5° C | 90% | 1006.6 hPa | 0 mm | - | - | - |
| 1777634704 | 5° C | 95% | 1006.3 hPa | 0 mm | - | - | - |
| 1777634104 | 5° C | 96% | 1006.2 hPa | 0 mm | - | - | - |
| 1777633504 | 4.44° C | 96% | 1006.2 hPa | 0 mm | - | - | - |
| 1777632304 | 5° C | 97% | 1006.1 hPa | 0 mm | - | - | - |
| 1777630804 | 5° C | 98% | 1005.7 hPa | 0 mm | - | - | - |
| 1777629304 | 5° C | 98% | 1005.5 hPa | 0 mm | - | - | - |
| 1777628704 | 5° C | 98% | 1005.4 hPa | 0 mm | - | - | - |
| 1777627504 | 5.56° C | 98% | 1005.2 hPa | 0 mm | - | - | - |
| 1777625104 | 5.56° C | 99% | 1004.9 hPa | 0 mm | - | - | - |
| 1777621204 | 6.11° C | 99% | 1004.7 hPa | 0 mm | - | - | - |
| 1777620605 | 6.67° C | 99% | 1004.8 hPa | 0 mm | - | - | - |
| 1777617904 | 6.67° C | 99% | 1004.8 hPa | 0 mm | - | - | - |
| 1777617605 | 6.67° C | 99% | 1004.8 hPa | 0 mm | - | - | - |
| 1777616104 | 6.67° C | 99% | 1004.8 hPa | 0 mm | - | - | - |
| 1777615504 | 6.67° C | 99% | 1004.8 hPa | 0 mm | - | - | - |
| 1777612504 | 7.22° C | 99% | 1004.9 hPa | 0 mm | - | - | - |
| 1777611904 | 7.22° C | 99% | 1004.9 hPa | 0 mm | - | - | - |
| 1777610404 | 7.22° C | 99% | 1005.1 hPa | 0 mm | - | - | - |
| 1777608003 | 7.22° C | 99% | 1005.1 hPa | 0 mm | - | - | - |
| 1777607703 | 7.22° C | 99% | 1005.2 hPa | 0 mm | - | - | - |
| 1777605903 | 7.22° C | 99% | 1005.1 hPa | 0 mm | - | - | - |
| 1777602903 | 7.22° C | 99% | 1005.4 hPa | 0.25 mm | - | - | - |
| 1777601103 | 7.22° C | 99% | 1005.7 hPa | 0.25 mm | - | - | - |
* Rain latest hour (hover to see other rain measurements)
** Current wind speed in m/s (hover to see current wind gust speed)